< < Back
Terminal Aerodrome Forecast


Current Version              Previous Versions:   1  2  3  4  5  6  7  8  9  

Terminal Aerodrome Forecast

716
FTUS42 KJAX 271120
TAFJAX
TAF
KJAX 271120Z 2712/2812 VRB03KT P6SM FEW040 SCT130 BKN200
     FM271400 27005KT P6SM SCT030
     FM271900 15008KT P6SM SCT050
     FM280100 VRB04KT P6SM FEW030 SCT250=

Latest METAR

400
SAUS80 KWBC 280000
MTRJAX
METAR KJAX 272356Z 14007KT 10SM FEW050 SCT250 31/23 A3000 RMK AO2 SLP160
CB DSNT S-SW T03110233 10361 20311 55002


USA.gov is the U.S. government's official web portal to all federal, state and local government web resources and services.